sat.trackr.live / text

‹ back to catalog

STARLINK-31300

NORAD 58878 · 2024-020C

PAYLOAD ACTIVE UNKNOWN

§ Identity

Operator
Country
US
Launch date
2024-01-29
Launch site
AFWTR
Launch vehicle
Mass (kg)
RCS (m²)

Purposes: comms

External: N2YO · Heavens-Above · Gunter

§ Orbital elements

Epoch: 2026-05-24T21:29:28.442112Z

Period
93.85 min
Inclination
53.1619°
Eccentricity
0.0000981
Mean motion
15.34401237 rev/d
Perigee alt
462.0 km
Apogee alt
463.4 km
Semi-major
6,840.8 km
B*
-7.7966e-6
RAAN
328.0924°
Arg perigee
170.8995°
Mean anomaly
189.2026°
Rev number
12,974

§ Raw data

STARLINK-313001 58878U 24020C   26144.89546808 -.00000639  00000+0 -77966-5 0  99982 58878  53.1619 328.0924 0000981 170.8995 189.2026 15.34401237129749

JSON: /api/v1/satellites/58878 · /tle

For live sub-satellite position, see the globe view (requires WebGL).

§ Visibility from observer

Set your observer location to see the next 7 days of passes ≥ 10°. The values pass through the URL so the page stays shareable.

No JS? Fill the form by hand. The geolocation button needs JavaScript.